Probability
0 0 0 0 0 0 0 0 0 0 0 0 0 0 0 0 0 0 0 0 0 0 0 0 0 0 0 0 0 0 0 0 0 0 0 0 0 0 0 0 0 0 0 0
0 0 0 0 0 0 0 0 0 0 0 0 0 0 0 0 0 0 0 0 0 0 0 0 0 0 0 0 0 0 0 0 0 0 0 0 0 0 0 0 0 0 0 0
0 0 0 0 0 0 0 0 0 0 0 0 0 0 0 0 0 0 0 0 0 0 0 0 0 0 0 0 0 0 0 0 0 0 0 0 0 0 0 0 0 0 0 0
0 0 0 0 0 0 0 0 0 0 0 0 0 0 0 0 0 0 0 0 0 0 0 0 0 0 0 0 0 0 0 0 0 0 0 0 0 0 0 0 0 0 0 0
0 0 0 0 0 0 0 0 0 0 0 0 0 0 0 0 0 0 0 0 0 0 0 0 0 0 0 0 0 0 0 0 0 0 0 0 0 0 0 0 0 0 0 0
0 0 0 0 0 0 0 0 0 0 0 0 0 0 0 0 0 0 0 0 0 0 0 0 0 0 0 0 0 0 0 0 0 0 0 0 0 0 0 0 0 0 0 0
0 0 0 0 0 0 0 0 0 0 0 0 0 0 0 0 0 0 0 0 0 0 0 0 0 0 0 0 0 0 0 0 0 0 0 0 0 0 0 0 0 0 0 0
0 0 0 0 0 0 0 0 0 0 0 0 0 0 0 0 0 0 0 0 0 0 0 0 0 0 0 0 0 0 0 0 0 0 0 0 0 0 0 0 0 0 0 0
0 0 0 0 0 0 0 0 0 0 0 0 0 0 0 0 0 0 0 0 0 0 0 0 0 0 0 0 0 0 0 0 0 0 0 0 0 0 0 0 0 0 0 0
0 0 0 0 0 0 0 0 0 0 0 0 0 0 0 0 0 0 0 0 0 0 0 0 0 0 0 0 0 0 0 0 0 0 0 0 0 0 0 0 0 0 0 0
0 0 0 0 0 0 0 0 0 0 0 0 0 0 0 0 0 0 0 0 0 0 0 0 0 0 0 0 0 0 0 0 0 0 0 0 0 0 0 0 0 0 0 0
0 0 0 0 0 0 0 0 0 0 0 0 0 0 0 0 0 0 0 0 0 0 0 0 0 0 0 0 0 0 0 0 0 0 0 0 0 0 0 0 0 0 0 0
0 0 0 0 0 0 0 0 0 0 0 0 0 0 0 0 0 0 0 0 0 0 0 0 0 0 0 0 0 0 0 0 0 0 0 0 0 0 0 0 0 0 0 0
0 0 0 0 0 0 0 0 0 0 0 0 0 0 0 0 0 0 0 0 0 0 0 0 0 0 0 0 0 0 0 0 0 0 0 0 0 0 0 0 0 0 0 0
0 0 0 0 0 0 0 0 0 0 0 0 0 0 0 0 0 0 0 0 0 0 0 0 0 0 0 0 0 0 0 0 0 0 0 0 0 0 0 0 0 0 0 0
0 0 0 0 0 0 0 0 0 0 0 0 0 0 0 0 0 0 0 0 0 0 0 0 0 0 0 0 0 0 0 0 0 0 0 0 0 0 0 0 0 0 0 0
0 0 0 0 0 0 0 0 0 0 0 0 0 0 0 0 0 0 0 0 0 0 0 0 0 0 0 0 0 0 0 0 0 0 0 0 0 0 0 0 0 0 0 0
0 0 0 0 0 0 0 0 0 0 0 0 0 0 0 0 0 0 0 0 0 0 0 0 0 0 0 0 0 0 0 0 0 0 0 0 0 0 0 0 0 0 0 0
0 0 0 0 0 0 0 0 0 0 0 0 0 0 0 0 0 0 0 0 0 0 0 0 0 0 0 0 0 0 0 0 0 0 0 0 0 0 0 0 0 0 0 0
0 0 0 0 0 0 0 0 0 0 0 0 0 0 0 0 0 0 0 0 0 0 0 0 0 0 0 0 0 0 0 0 0 0 0 0 0 0 0 0 0 0 0 0
0 0 0 0 0 0 0 0 0 0 0 0 0 0 0 0 0 0 0 0 0 0 0 0 0 0 0 0 0 0 0 0 0 0 0 0 0 0 0 0 0 0 0 0
0 0 0 0 0 0 0 0 0 0 0 0 0 0 0 0 0 0 0 0 0 0 0 0 0 0 0 0 0 0 0 0 0 0 0 0 0 0 0 0 0 0 0 0
0 0 0 0 0 0 0 0 0 0 0 0 0 0 0 0 0 0 0 0 0 0 0 0 0 0 0 0 0 0 0 0 0 0 0 0 0 0 0 0 0 0 0 0
0 0 0 0 0 0 0 0 0 0 0 0 0 0 0 0 0 0 0 0 0 0 0 0 0 0 0 0 0 0 0 0 0 0 0 0 0 0 0 0 0 0 0 0
0 0 0 0 0 0 0 0 0 0 0 0 0 0 0 0 0 0 0 0 0 0 0 0 0 0 0 0 0 0 0 0 0 0 0 0 0 0 0 0 0 0 0 0
0 0 0 0 0 0 0 0 0 0 0 0 0 0 0 0 0 0 0 0 0 0 0 0 0 0 0 0 0 0 0 0 0 0 0 0 0 0 0 0 0 0 0 0
Height
5881 5880 5878 5876 5874 5872 5870 5867 5865 5862 5858 5855 5851 5846 5841 5834 5828 5820 5812 5802 5792 5780 5769 5757 5745 5732 5719 5706 5692 5678 5665 5652 5642 5633 5625 5618 5610 5602 5595 5589 5583 5579 5577 5577
5881 5879 5876 5874 5872 5870 5867 5865 5862 5859 5855 5851 5845 5841 5836 5828 5820 5812 5802 5791 5780 5768 5755 5743 5730 5716 5702 5688 5673 5658 5645 5635 5626 5617 5610 5603 5597 5590 5584 5577 5571 5564 5560 5555
5879 5877 5874 5872 5870 5867 5865 5862 5858 5855 5850 5846 5840 5835 5830 5821 5812 5802 5791 5780 5768 5755 5742 5728 5714 5700 5685 5669 5654 5641 5631 5622 5613 5605 5598 5591 5584 5578 5571 5565 5558 5551 5544 5539
5877 5875 5872 5870 5867 5864 5861 5858 5854 5850 5845 5841 5835 5827 5823 5812 5802 5791 5780 5768 5754 5741 5727 5713 5698 5683 5667 5651 5637 5627 5618 5609 5601 5593 5586 5579 5572 5566 5559 5552 5546 5539 5531 5525
5875 5872 5870 5867 5864 5861 5857 5853 5849 5845 5840 5836 5828 5820 5814 5803 5792 5781 5769 5755 5741 5727 5712 5698 5682 5666 5649 5635 5624 5615 5606 5598 5589 5581 5573 5566 5559 5552 5545 5538 5532 5526 5519 5512
5873 5870 5868 5864 5861 5857 5853 5849 5845 5839 5834 5829 5821 5813 5804 5795 5783 5770 5757 5742 5728 5714 5699 5683 5666 5650 5635 5623 5613 5604 5595 5586 5577 5568 5559 5551 5544 5536 5529 5523 5517 5511 5506 5500
5871 5868 5865 5861 5858 5854 5850 5845 5840 5833 5826 5822 5815 5806 5797 5785 5772 5759 5745 5731 5716 5701 5685 5668 5652 5637 5624 5613 5603 5593 5583 5573 5563 5553 5544 5535 5527 5519 5512 5505 5500 5495 5491 5486
5868 5865 5862 5858 5854 5850 5846 5842 5837 5830 5822 5816 5808 5798 5789 5776 5762 5748 5734 5719 5704 5687 5670 5654 5639 5625 5614 5603 5592 5581 5570 5559 5548 5537 5527 5518 5509 5501 5493 5486 5481 5476 5473 5470
5865 5862 5859 5855 5851 5847 5842 5837 5832 5826 5816 5808 5800 5791 5779 5766 5753 5739 5723 5707 5691 5674 5658 5642 5628 5615 5604 5592 5580 5568 5556 5544 5533 5522 5512 5502 5493 5484 5476 5469 5463 5458 5454 5452
5861 5859 5856 5852 5848 5843 5838 5832 5827 5820 5811 5801 5792 5782 5771 5756 5743 5728 5712 5696 5680 5663 5647 5632 5618 5606 5593 5580 5567 5555 5543 5531 5521 5510 5500 5490 5481 5471 5463 5455 5448 5442 5437 5434
5858 5856 5852 5848 5844 5839 5834 5828 5821 5814 5806 5795 5784 5777 5763 5748 5732 5717 5701 5685 5668 5652 5637 5622 5608 5595 5582 5569 5556 5544 5533 5522 5512 5502 5491 5481 5471 5461 5451 5442 5434 5427 5422 5418
5855 5852 5849 5845 5840 5835 5830 5824 5817 5809 5799 5789 5778 5769 5753 5738 5722 5707 5691 5675 5658 5643 5628 5614 5600 5586 5572 5560 5548 5536 5526 5515 5504 5493 5482 5471 5461 5450 5440 5430 5421 5414 5407 5403
5851 5848 5845 5841 5839 5832 5825 5818 5810 5802 5794 5783 5771 5760 5743 5728 5712 5697 5682 5666 5650 5635 5621 5606 5592 5578 5565 5553 5541 5530 5519 5508 5496 5485 5473 5461 5450 5439 5428 5418 5409 5401 5394 5389
5848 5844 5841 5837 5830 5824 5818 5813 5805 5797 5787 5776 5764 5751 5734 5719 5705 5689 5674 5658 5643 5628 5613 5599 5585 5571 5558 5547 5535 5524 5512 5501 5489 5476 5464 5452 5439 5428 5416 5406 5396 5388 5381 5376
5844 5841 5837 5832 5827 5822 5815 5809 5801 5792 5781 5769 5756 5742 5728 5712 5697 5682 5666 5651 5636 5621 5607 5593 5579 5565 5553 5542 5530 5518 5506 5493 5481 5468 5456 5443 5431 5418 5406 5395 5386 5377 5370 5364
5839 5836 5833 5829 5824 5818 5811 5803 5794 5784 5773 5761 5748 5735 5720 5705 5690 5674 5659 5644 5630 5615 5601 5586 5572 5560 5548 5537 5525 5513 5500 5487 5474 5461 5448 5436 5424 5411 5399 5387 5377 5368 5360 5354
5835 5831 5827 5823 5817 5812 5804 5796 5787 5778 5767 5754 5741 5729 5713 5698 5683 5668 5653 5638 5624 5609 5594 5580 5568 5556 5544 5532 5519 5507 5494 5480 5466 5454 5442 5430 5417 5405 5393 5381 5370 5359 5351 5344
5831 5826 5821 5816 5811 5804 5801 5790 5781 5771 5760 5747 5734 5720 5706 5692 5677 5661 5646 5632 5617 5603 5589 5576 5564 5552 5539 5527 5514 5501 5487 5474 5460 5447 5435 5424 5412 5399 5387 5375 5363 5352 5341 5334
5826 5821 5816 5810 5804 5799 5793 5783 5773 5764 5754 5741 5728 5714 5699 5685 5671 5657 5641 5626 5612 5598 5584 5572 5560 5548 5536 5523 5510 5497 5482 5469 5455 5442 5430 5418 5406 5393 5380 5367 5355 5343 5332 5323
5822 5817 5813 5806 5799 5793 5788 5778 5767 5758 5747 5735 5722 5708 5693 5679 5666 5651 5635 5621 5607 5592 5580 5568 5556 5544 5532 5520 5507 5493 5478 5464 5451 5438 5425 5412 5399 5386 5372 5358 5344 5331 5320 5311
5818 5813 5808 5801 5795 5789 5781 5770 5761 5752 5743 5729 5715 5701 5688 5674 5660 5645 5629 5616 5602 5589 5576 5564 5553 5541 5530 5517 5504 5490 5475 5461 5447 5434 5421 5408 5394 5380 5365 5350 5333 5318 5306 5297
5811 5805 5800 5794 5787 5782 5773 5765 5757 5748 5735 5722 5709 5695 5682 5668 5653 5639 5625 5611 5597 5585 5573 5562 5550 5539 5527 5515 5502 5488 5473 5459 5444 5431 5418 5404 5389 5374 5359 5342 5324 5307 5292 5283
5807 5802 5796 5791 5786 5778 5769 5761 5752 5741 5730 5717 5704 5690 5677 5663 5648 5634 5621 5608 5595 5583 5572 5560 5549 5537 5525 5513 5501 5487 5473 5458 5444 5430 5416 5402 5387 5371 5355 5337 5317 5298 5283 5273
5802 5797 5792 5786 5779 5772 5764 5755 5746 5735 5724 5711 5698 5685 5672 5658 5644 5631 5618 5605 5593 5581 5570 5559 5548 5537 5525 5513 5500 5486 5472 5458 5444 5430 5416 5402 5387 5371 5353 5334 5314 5294 5278 5268
5796 5790 5786 5781 5774 5767 5759 5750 5741 5730 5719 5706 5693 5680 5667 5653 5640 5627 5615 5602 5590 5580 5569 5558 5547 5536 5525 5513 5500 5487 5473 5459 5445 5431 5417 5403 5388 5372 5354 5334 5314 5294 5278 5267
5792 5787 5781 5775 5769 5762 5754 5745 5736 5725 5713 5701 5688 5675 5663 5650 5637 5624 5612 5600 5589 5578 5568 5558 5547 5536 5525 5513 5501 5487 5474 5461 5448 5434 5419 5405 5390 5374 5357 5339 5320 5300 5284 5271
Wind_Speed
3 4 5 6 7 9 11 13 16 18 22 25 28 31 33 38 43 48 53 58 62 66 70 73 74 76 78 79 80 80 80 77 73 68 63 59 55 51 49 49 50 53 57 64
6 7 9 10 11 13 15 17 19 21 24 28 32 33 36 42 46 51 56 62 67 71 73 74 76 78 79 80 79 77 73 67 62 58 54 50 45 43 43 44 45 45 47 50
8 10 12 13 14 15 17 20 22 25 28 30 36 37 40 45 50 56 61 67 71 74 76 77 78 79 79 78 74 69 63 58 55 52 49 46 45 45 45 44 44 45 45 45
11 13 14 15 17 18 20 23 26 29 31 33 38 43 44 49 55 61 66 70 74 76 77 78 79 79 77 74 67 61 56 54 52 51 49 47 46 45 45 44 44 44 44 44
14 15 16 17 19 21 23 26 29 31 34 36 39 46 49 54 60 65 70 73 75 77 77 78 78 76 74 68 61 56 54 53 52 52 51 50 50 49 48 47 46 44 43 43
15 16 17 18 19 21 24 27 30 33 37 39 44 48 54 59 64 68 72 75 76 77 78 78 76 73 68 62 57 54 54 54 55 54 54 54 54 54 52 51 49 46 44 42
17 18 18 19 19 21 24 28 33 38 42 43 46 51 58 63 67 71 74 75 77 78 78 75 72 68 63 59 56 55 56 58 58 58 58 58 57 57 56 55 53 50 46 43
19 19 19 20 20 22 24 27 32 37 42 45 49 54 61 66 70 73 75 76 77 77 75 72 68 64 60 58 58 59 60 61 61 60 59 58 58 57 56 56 54 52 49 45
19 19 20 20 21 23 26 30 33 38 44 49 53 58 65 69 72 74 75 76 77 75 72 68 65 62 60 60 61 62 62 61 59 57 55 54 53 53 52 52 52 51 50 47
19 18 19 19 21 24 28 33 37 40 46 53 58 63 67 71 73 75 75 76 75 72 69 65 63 62 63 64 64 62 59 56 53 51 51 50 50 49 49 48 48 47 46 46
18 18 19 20 22 26 30 34 38 42 47 53 60 65 68 72 74 75 75 75 73 69 66 64 64 65 65 64 61 57 54 52 51 50 50 50 49 49 49 49 47 46 44 43
18 18 19 21 24 27 31 35 39 44 50 55 61 67 71 72 73 74 75 74 70 67 65 65 65 66 64 60 56 53 51 51 51 51 51 51 51 50 50 49 47 46 44 42
18 19 21 23 26 29 33 37 41 46 51 56 62 67 72 72 73 74 74 72 68 66 65 65 65 64 60 56 53 52 51 51 52 53 53 53 53 52 50 49 46 44 41 40
18 20 24 27 31 33 36 39 43 47 52 58 64 68 71 72 73 74 73 70 67 65 65 65 64 60 55 53 52 51 52 53 54 55 54 54 52 51 50 47 45 42 39 36
21 21 24 27 29 31 35 39 43 47 53 60 66 70 71 73 73 74 72 69 66 65 64 63 60 56 53 52 51 52 54 55 56 55 53 52 52 51 50 47 44 40 37 34
23 25 26 28 30 31 35 39 44 49 56 63 68 71 73 73 73 73 70 67 65 64 63 60 56 53 52 52 52 54 55 56 56 54 52 52 52 52 51 48 44 41 37 33
25 28 30 31 33 34 37 43 47 51 58 65 69 72 73 72 72 71 69 66 64 63 61 57 53 52 52 52 54 55 56 57 56 53 52 52 53 53 53 51 47 43 38 33
27 29 32 34 36 38 41 44 48 53 60 66 70 73 72 72 71 69 66 64 62 61 58 54 51 51 52 53 55 56 58 58 56 53 52 53 53 53 54 54 52 48 41 35
28 30 33 36 38 39 42 46 51 55 61 67 71 72 71 71 70 66 64 63 61 58 55 52 51 51 51 53 55 57 59 58 55 53 53 54 54 55 55 56 56 53 44 36
29 31 33 36 39 42 44 47 52 57 63 67 70 71 70 70 67 66 64 62 59 56 52 51 51 51 51 53 56 58 59 58 55 54 54 55 56 57 57 59 59 55 47 37
31 33 34 36 38 41 44 49 54 58 63 67 69 69 68 68 66 64 62 60 57 53 51 50 51 51 51 53 56 59 59 58 56 54 55 56 57 58 60 62 61 56 47 36
35 37 38 39 41 44 46 49 53 58 63 67 68 67 67 66 64 62 60 58 54 51 50 50 50 51 52 54 57 58 59 58 57 55 55 57 59 60 63 64 63 58 46 32
35 37 38 39 40 42 45 48 53 58 62 66 67 66 66 65 62 60 58 56 52 49 48 49 49 50 52 54 57 58 58 58 57 56 56 57 59 62 65 67 65 58 44 29
37 37 37 38 40 41 44 48 53 58 62 65 65 65 64 63 61 58 57 54 50 47 47 48 48 49 51 54 56 57 58 59 58 56 56 57 59 62 65 69 68 61 45 29
40 39 37 37 39 41 44 48 52 58 62 64 64 64 63 61 59 57 55 52 48 46 46 47 47 48 50 53 55 57 58 59 58 56 56 58 60 61 65 69 71 64 50 34
40 38 37 38 39 41 44 48 52 58 62 63 63 62 61 60 57 56 54 51 46 44 45 46 46 47 49 52 54 56 58 59 58 56 57 58 60 61 63 67 70 68 58 42
Wind_Direction
320 318 321 322 321 319 318 317 318 319 320 321 321 323 324 322 320 319 319 317 316 315 315 314 314 313 313 312 309 306 303 302 302 303 303 302 301 300 298 296 292 286 278 268
314 315 318 317 315 315 314 312 313 315 318 320 320 322 323 320 320 320 320 319 319 317 317 318 317 316 315 313 309 306 305 306 307 307 306 305 303 301 299 299 298 295 289 280
325 323 321 319 316 312 310 309 313 317 320 322 319 321 324 322 323 322 322 322 320 320 320 320 319 318 316 312 309 307 308 309 309 308 306 305 304 302 300 300 299 299 298 295
329 325 322 318 315 313 312 313 316 319 320 324 322 321 325 326 325 324 324 323 323 323 323 322 322 320 316 313 310 310 310 310 310 308 305 303 302 300 299 298 298 298 298 297
331 328 324 321 319 317 316 317 318 319 321 323 323 325 328 327 327 326 326 325 325 325 325 324 323 320 317 314 313 312 311 311 310 308 305 302 301 300 299 298 298 298 297 296
334 332 330 326 323 321 320 319 319 321 322 326 328 329 328 328 328 328 327 327 327 327 327 326 324 321 319 317 315 314 313 312 310 308 305 302 300 298 297 296 295 295 295 293
335 335 332 329 326 324 324 325 325 325 326 329 328 330 329 330 330 330 329 329 328 329 329 327 324 322 321 320 318 316 314 312 311 308 306 303 300 298 295 293 291 290 289 289
333 335 333 332 329 328 326 325 326 327 326 326 329 333 331 332 332 331 330 330 330 331 329 327 326 325 324 322 320 318 316 314 312 310 308 306 303 301 298 295 292 288 285 283
333 334 332 331 328 326 324 325 327 327 326 329 332 332 332 333 332 331 331 332 333 332 330 328 327 327 325 323 321 320 319 318 317 316 315 314 312 309 306 301 297 291 286 281
332 332 330 329 326 323 325 326 328 331 332 331 331 333 336 334 333 333 334 334 334 333 331 330 329 328 326 325 324 325 325 326 326 325 324 322 320 317 314 310 305 298 291 282
331 331 330 328 326 326 327 329 330 331 332 333 333 334 336 335 335 335 336 336 335 333 332 331 330 329 328 328 329 331 331 331 330 328 327 325 322 320 318 314 310 305 298 289
329 330 328 327 328 327 327 329 330 332 333 334 334 335 337 337 337 337 337 337 336 334 333 332 331 331 331 333 334 335 335 334 333 331 329 327 324 322 319 316 312 308 302 295
330 330 329 328 329 330 331 332 332 332 334 335 337 337 339 339 339 339 339 338 337 335 334 332 332 333 335 337 337 337 337 336 334 333 331 329 326 324 322 319 314 310 304 297
330 331 331 331 334 334 331 331 331 332 335 336 339 339 340 340 340 340 340 339 338 336 334 334 334 337 339 339 339 339 338 337 336 335 334 333 332 330 328 324 320 315 309 301
328 330 331 331 332 330 327 327 330 335 337 339 340 340 341 341 341 340 341 340 339 337 335 335 337 340 341 341 341 340 339 338 338 337 338 338 339 338 336 332 327 322 315 308
326 328 330 330 330 330 326 329 335 338 339 340 341 341 342 342 342 341 341 340 339 337 337 338 341 343 343 342 342 342 341 340 340 340 341 342 343 344 343 340 334 328 321 313
325 326 329 331 332 333 332 336 337 339 340 341 342 342 342 342 342 342 341 341 339 339 339 342 344 345 344 344 344 344 343 343 343 343 343 344 344 345 346 345 341 334 325 317
326 326 329 332 334 336 336 335 338 341 341 341 341 342 343 343 342 342 342 341 340 340 342 345 346 346 346 345 346 346 345 345 345 344 345 345 345 344 344 345 344 339 330 319
326 327 329 332 333 335 335 338 340 341 341 341 341 342 343 343 342 343 343 342 342 343 345 348 349 348 348 348 348 348 347 348 347 347 346 346 346 345 344 343 342 340 333 321
328 327 328 330 332 334 337 338 340 341 341 341 342 343 343 343 343 344 344 343 344 346 348 350 350 350 350 351 351 350 350 350 350 349 349 349 348 347 346 344 342 339 333 322
328 326 328 330 332 333 337 339 340 341 339 341 342 343 343 343 344 345 345 345 346 348 351 351 351 352 353 353 353 353 353 353 352 352 352 351 351 350 349 347 344 340 334 324
329 329 332 333 334 336 337 337 339 339 340 341 342 343 343 344 345 346 346 346 348 351 353 353 353 353 354 355 356 356 356 356 356 355 354 354 354 353 352 351 349 345 339 328
326 326 331 332 332 333 334 336 338 339 340 341 342 343 344 344 346 347 347 348 349 352 354 355 355 355 356 357 358 358 359 359 359 358 358 358 357 357 356 356 355 353 348 338
324 326 330 330 330 332 334 336 338 339 340 341 342 343 344 345 347 348 348 349 351 354 356 357 357 357 358 358 359 1 2 2 2 1 1 1 1 0 0 1 2 1 358 353
322 328 330 329 329 331 333 336 338 339 340 341 343 344 345 346 348 349 349 350 353 356 357 358 359 359 360 0 2 4 5 5 4 4 4 5 5 4 5 6 8 8 8 6
321 325 326 327 328 330 333 335 337 339 340 342 343 344 345 347 348 350 350 352 354 356 359 360 0 1 2 2 4 6 8 7 7 8 9 9 9 9 10 11 13 14 15 15